Location: Maccacari
(45.1333°N, 11.1333°E)
Time: 07:42:57
(UTC+00:00)

Cosmos 372 Rocket - Pass Details

Date: 18 September 2020
Orbit: 739 x 767 km, 74.1° (Epoch: 29 October)

Event Time Altitude Azimuth Distance (km) Brightness Sun altitude
Rises 18:42:39 0° 194° (SSW) 3,221 7.2 -15.1°
Reaches altitude 10° 18:45:01 10° 193° (SSW) 2,298 6.4 -15.5°
Maximum altitude 18:50:14 76° 108° (ESE) 793 3.9 -16.4°
Drops below altitude 10° 18:55:27 10° 24° (NNE) 2,305 6.4 -17.3°
Sets 18:57:50 0° 23° (NNE) 3,231 7.2 -17.7°
